Regional Weather Roundup
Issued by NWS

Home | Current Version | Previous Version | Graphics & Text | Print | Product List | Glossary On
Versions: 1 2 3 4 5 6 7 8 9 10 11 12 13 14 15 16 17 18 19 20 21 22 23 24 25 26 27 28 29 30 31 32 33 34 35 36 37 38 39 40 41 42 43 44 45 46 47 48 49 50
673
ASUS45 KSLC 221410
RWRUT

UTAH REGIONAL WEATHER ROUNDUP
NATIONAL WEATHER SERVICE SALT LAKE CITY UT
800 AM MDT SUN OCT 22 2017

UTZ001>011-023>025-221500-

NORTHERN UTAH

CITY           SKY/WX    TMP DP  RH WIND       PRES   REMARKS
BRIGHAM CITY   CLOUDY    48  20  33 N6        30.35R
HILL AFB       MOCLDY    48  15  27 S8        30.35S
LOGAN          MOCLDY    41  30  65 NW5       30.33S
OGDEN          MOCLDY    46  19  34 S8        30.35R
SALT LAKE CITY MOCLDY    49  22  34 SE12      30.36F
TOOELE VALLEY  PTCLDY    39  21  48 S8        30.36S WCI  34
WENDOVER       PTCLDY    35  21  56 CALM      30.35R
WEST JORDAN    PTCLDY    43  20  41 S12       30.37S

$$

UTZ011>015-024>027-221500-

CENTRAL/NORTHEAST UTAH

CITY           SKY/WX    TMP DP  RH WIND       PRES   REMARKS
PROVO AIRPORT  PTCLDY    35  25  66 CALM      30.41R
MOAB/CANYONLAN CLEAR     37  12  35 CALM      30.39R
DELTA          MOCLDY    30  19  64 E3        30.40R
PRICE          PTCLDY    33  15  47 N7        30.39S WCI  27
RICHFIELD      CLEAR     23  19  86 CALM      30.47R
ROOSEVELT      CLOUDY    28  19  69 SW5       30.41R WCI  23
VERNAL         CLOUDY    30  17  58 W3        30.38R

$$

UTZ013>016-019>022-027-221500-

SOUTHERN UTAH

CITY           SKY/WX    TMP DP  RH WIND       PRES   REMARKS
BRYCE CANYON   PTCLDY    23  15  71 W3        30.47R
CEDAR CITY     PTCLDY    32  17  54 CALM      30.42R
MILFORD        PTCLDY    28  10  46 S5        30.41R WCI  23
ST GEORGE      MOSUNNY   46  14  27 CALM      30.37R
HANKSVILLE     PTCLDY    32  14  47 CALM      30.43R
BLANDING         N/A     33   9  37 N6        30.47R WCI  28

$$

REGIONAL REPORTS     COLORADO/ARIZONA

CITY           SKY/WX    TMP DP  RH WIND       PRES   REMARKS
CRAIG, CO      CLOUDY    27  22  81 CALM      30.40R
GRAND JUNCTION CLOUDY    34  17  50 E6        30.42R WCI  29
RIFLE, CO      CLOUDY    27  23  85 SE3       30.47R
MONTROSE, CO   CLOUDY    29  15  56 S5        30.46R WCI  24
CORTEZ, CO     CLOUDY    27  11  51 E6        30.41R WCI  20
COLORADO CITY    N/A     32  14  47 CALM      30.42R
PAGE, AZ       PTCLDY    43  17  35 CALM      30.37R
GRAND CANYON   MOCLDY    26   7  44 NE6       30.42S WCI  19
KINGMAN, AZ    CLEAR     44  13  28 E5        30.30R
FLAGSTAFF, AZ  PTCLDY    26  11  52 CALM      30.43R

$$

REGIONAL REPORTS    NEVADA/IDAHO/WYOMING

CITY           SKY/WX    TMP DP  RH WIND       PRES   REMARKS
LAS VEGAS, NV  CLEAR     55  18  23 S5        30.29R
ELY, NY        PTCLDY    32  22  66 S13       30.44R WCI  22
ELKO, NV       PTCLDY    30  24  78 CALM      30.36F
POCATELLO, ID  CLOUDY    50  32  50 S18       30.25F
BURLEY, ID     PTCLDY    45  34  65 SW15      30.24S
FORT BRIDGER,  PTSUNNY   40  24  53 W21G28    30.36R WCI  30
EVANSTON, WY   CLOUDY    37  21  52 S7        30.37S WCI  32
ROCK SPRINGS,  CLOUDY    40  23  50 SW10      30.32R WCI  33
KEMMERER, WY   CLOUDY    32  21  64 W5        30.33S WCI  27

$$




USA.gov is the U.S. government's official web portal to all federal, state and local government web resources and services.